Regional Weather Roundup
Issued by NWS

Home | Current Version | Previous Version | Graphics & Text | Print | Product List | Glossary On
Versions: 1 2 3 4 5 6 7 8 9 10 11 12 13 14 15 16 17 18 19 20 21 22 23 24 25 26 27 28 29 30 31 32 33 34 35 36 37 38 39 40 41 42 43 44 45 46 47 48 49 50
000
ASUS43 KDTX 060110
RWRMI
MICHIGAN HOURLY REGIONAL WEATHER ROUNDUP
NATIONAL WEATHER SERVICE DETROIT/PONTIAC MI
ISSUED BY NATIONAL WEATHER SERVICE GRAND RAPIDS MI
800 PM EST MON DEC 05 2016

NOTE: "FAIR" INDICATES FEW OR NO CLOUDS BELOW 12,000 FEET WITH NO
SIGNIFICANT WEATHER AND/OR OBSTRUCTION TO VISIBILITY.

MIZ047>049-052>055-059>063-066>070-074>076-081>083-060200-
SOUTHEAST LOWER MICHIGAN

CITY           SKY/WX    TMP DP  RH WIND       PRES   REMARKS
ADRIAN         CLEAR     29  29 100 S3        30.07S
ALMA           CLEAR     33  31  94 SW9       30.05S WCI  25
ANN ARBOR      CLEAR     24  23  96 SE3       30.06R
BAD AXE        CLEAR     29  27  91 S3        30.05S
DETROIT CITY   CLEAR     33  28  81 SW3       30.07S
DETROIT        PTCLDY    33  28  81 S6        30.08R WCI  28
FLINT          CLEAR     33  27  78 SW3       30.05S
GROSSE ILE     PTCLDY    34  29  81 CALM      30.07R
HILLSDALE      MOCLDY    30  28  93 SE6       30.02R WCI  24
HOWELL         CLEAR     30  27  89 SE3       30.03F

CITY           SKY/WX    TMP DP  RH WIND       PRES   REMARKS
JACKSON        CLEAR     28  25  88 S5        30.03F WCI  23
LANSING        CLOUDY    32  27  81 CALM      30.04S
MASON          CLOUDY    31  29  94 SE3       30.02F
MONROE         CLEAR     29  28  96 CALM      30.07R
MT. CLEMENS    PTCLDY    33  28  82 SW3       30.04S
PONTIAC        PTCLDY    33  27  78 SW3       30.03F
PORT HOPE        N/A     33  29  85 CALM      30.03S
PORT HURON     CLEAR     27  27 100 CALM      30.06F
TRI CITIES     CLEAR     34  31  88 SW8       30.05R WCI  27
YPSILANTI      CLEAR     30  28  92 S5        30.07R WCI  25
$$
MIZ043>046-050>051-056>058-064>065-071>073-077>080-060200-
SOUTHWEST LOWER MICHIGAN

CITY           SKY/WX    TMP DP  RH WIND       PRES   REMARKS
BATTLE CREEK   MOCLDY    31  29  92 SE5       30.03R WCI  26
BENTON HARBOR  CLOUDY    33  29  85 SE8       30.02R FOG     WCI  26
BIG RAPIDS     PTCLDY    36  32  84 S3        30.00F
COLDWATER      CLOUDY    32  29  89 SE6       30.03R WCI  26
HOLLAND        CLOUDY    33  29  85 E6        30.02F WCI  28
GRAND RAPIDS   CLOUDY    33  27  78 E5        30.02F WCI  29
KALAMAZOO      CLOUDY    33  28  81 SE8       30.03R WCI  26
MARSHALL       CLEAR     31  29  92 S3        30.03R
MOUNT PLEASANT CLEAR     35  31  88 SW5       30.03S WCI  31
MUSKEGON       CLOUDY    35  30  82 SE7       30.02F WCI  29
STURGIS        CLOUDY    32  29  87 SE5       30.02S WCI  27
$$
MIZ016>042-060200-
NORTHERN LOWER MICHIGAN

CITY           SKY/WX    TMP DP  RH WIND       PRES   REMARKS
ALPENA         CLOUDY    36  29  75 SW3       30.03R
BEAVER ISLAND  CLOUDY    40  33  75 SW9       29.97S WCI  35
BELLAIRE       CLOUDY    32  31  96 CALM      30.01R
CADILLAC       CLOUDY    33  30  88 SW6       29.98R WCI  28
CHARLEVOIX     CLEAR     36  32  84 SW6       30.02S WCI  32
GAYLORD        CLEAR     31  26  82 CALM      29.98R
HOUGHTON LAKE  PTCLDY    35  30  82 SW10      30.00S WCI  27
MANISTEE       CLOUDY    36  31  82 E3        29.99S
OSCODA         CLEAR     32  30  93 MISG      30.02S
PELLSTON       MOCLDY    38  30  73 SW6       29.99R WCI  33
TRAVERSE CITY  PTCLDY    34  30  85 CALM      29.99S
LUDINGTON      CLOUDY    40  35  81 S10       29.99F WCI  34
$$
MIZ007>008-015-060200-
EASTERN UPPER MICHIGAN

CITY           SKY/WX    TMP DP  RH WIND       PRES   REMARKS
KINROSS        CLOUDY    30  30 100 CALM      29.98R
MACKINAC ISLAN CLOUDY    39  32  75 SW6       29.98R WCI  35
NEWBERRY       MOCLDY    29  28  97 CALM      29.95S
S. S. MARIE    CLEAR     31  27  85 SW7       29.97R WCI  24
$$
MIZ004>006-011>014-085-060200-
CENTRAL UPPER MICHIGAN

CITY           SKY/WX    TMP DP  RH WIND       PRES   REMARKS
MANISTIQUE     CLOUDY    38  35  87 SW3       29.95S
ESCANABA       CLOUDY    34  31  88 SW6       29.95S WCI  29
MENOMINEE      CLOUDY    34  32  92 W8        29.96S WCI  27
SAWYER-GWINN   MOCLDY    30  30 100 SW9       29.89S WCI  22
$$
MIZ001>003-009>011-084-060200-
WESTERN UPPER MICHIGAN

CITY           SKY/WX    TMP DP  RH WIND       PRES   REMARKS
IRON MOUNTAIN  CLOUDY    33  28  81 S8        29.90R WCI  26
HOUGHTON       PTCLDY    33  26  75 E6        29.86R WCI  28
COPPER HARBOR    N/A     32  31  96 SW3       29.87S
IRONWOOD       LGT RAIN  35  32  88 S7        29.82R WCI  29
$$

ABBREVIATIONS USED IN REMARKS
   TC - TEMPERATURE IN CELSIUS
  WCI - WIND CHILL INDEX
   HX - HEAT INDEX
  VSB - VISIBILITY





USA.gov is the U.S. government's official web portal to all federal, state and local government web resources and services.